www.pogodaiklimat.ru

Погода и климат >> Архив погоды >> Австралия >> Argyle Aero


ПОГОДА в Argyle Aero

  • Прогноз погоды в Argyle Aero
  • Монитор погоды в Argyle Aero
  • Климат города

АРХИВ ПОГОДЫ в Argyle Aero

Время (UTC), дата Ветер
(напр.,м/с)
 
Видим.   Явления Облачность Т
(С)
Тd
(С)
f
(%)
Тe
(С)
Тes
(С)
Комфортность P
(гПа)
Po
(гПа)
Тmin
(С)
Tmax
(С)
R
(мм)
R24
(мм)
S
(см)
19 15.10 Ю 4 н/о н/о +30.1 +2.4 17 +28 +28 жарко 1009.0 990.7
21 15.10 Ю 3 н/о н/о +29.1 +2.4 18 +27 +27 жарко 1010.7 992.3
22 15.10 Ю 3 н/о н/о +30.7 +2.9 17 +28 +28 жарко 1011.3 992.9
00 16.10 Ю 6 н/о н/о +34.4 +2.0 13 +31 +31 жарко 1012.0 993.6
01 16.10 ЮВ 6 н/о н/о +36.0 +0.9 11 +32 +32 жарко 1011.7 993.3 +28.4
03 16.10 ЮВ 5 н/о н/о +39.1 +1.9 10 +36 +36 очень
жарко
1009.4 991.0
04 16.10 ЮВ 5 н/о н/о +40.1 +2.7 10 +37 +37 очень
жарко
1008.0 989.7
06 16.10 Ю 4 н/о н/о +40.5 +3.0 10 +37 +37 очень
жарко
1006.0 987.7
07 16.10 Ю 3 н/о 1/0 2000 м
[]
+41.2 +3.5 10 +38 +45 очень
жарко
1005.3 987.0
10 16.10 Ю 2 н/о 4/0
[]
+36.8 +2.8 12 +34 +34 очень
жарко
1006.6 988.3
12 16.10 В 3 н/о н/о +34.9 +2.4 13 +32 +32 жарко 1008.2 989.9
13 16.10 С 6 н/о 6/0
[]
+33.1 +19.2 44 +38 +38 очень
душно
1008.9 990.6 +42.4
15 16.10 С 5 н/о н/о +30.2 +21.6 60 +38 +38 очень
душно
1009.3 990.9
16 16.10 С 4 н/о 9/0
[]
+29.1 +22.3 67 +38 +38 очень
душно
1008.8 990.5
18 16.10 СЗ 4 н/о н/о +28.7 +21.2 64 +36 +36 очень
душно
1008.4 990.1
19 16.10 С 3 н/о 10/0
[]
+28.3 +21.6 67 +36 +36 очень
душно
1008.6 990.3
21 16.10 СЗ 3 н/о н/о +27.3 +21.6 71 +35 +35 очень
душно
1009.8 991.4
22 16.10 СЗ 3 н/о 4/0
[]
+27.8 +22.1 71 +36 +37 очень
душно
1010.2 991.8
00 17.10 С 4 н/о н/о +31.7 +19.0 47 +37 +37 очень
душно
1011.6 993.2
01 17.10 С 3 н/о 1/1 1500 м
[]
+33.5 +19.6 44 +39 +50 очень
душно
1011.6 993.2 +27.3
03 17.10 СВ 3 н/о н/о +34.7 +20.6 44 +41 +41 опасность
перегрева
1010.1 991.7
04 17.10 СВ 4 н/о 3/3 1500 м
[]
+37.4 +20.7 38 +44 +54 опасность
перегрева
1008.7 990.4
06 17.10 В 4 н/о н/о +37.6 +17.6 31 +41 +41 опасность
перегрева
1006.6 988.3
07 17.10 С 4 н/о н/о +37.4 +15.8 28 +39 +39 очень
душно
1005.8 987.5
10 17.10 С 5 н/о в посл. час дождь {туман} 10/10 1500 м
[]
+29.1 +21.3 63 +37 +37 очень
душно
1008.2 989.9
12 17.10 З 3 н/о н/о +24.5 +21.4 83 +31 +31 очень
душно
1009.8 991.4
13 17.10 ЮВ 3 н/о {туман} н/о +24.9 +20.6 77 +31 +31 очень
душно
1009.5 991.1 +39.0
15 17.10 СЗ 2 н/о н/о +25.6 +20.8 75 +32 +32 очень
душно
1009.9 991.5
16 17.10 З 2 н/о 1/0
[]
+25.9 +20.5 72 +32 +32 очень
душно
1009.8 991.4
18 17.10 В 2 н/о н/о +25.6 +21.1 76 +32 +32 очень
душно
1010.2 991.8
19 17.10 штиль 0 н/о н/о +25.2 +21.5 80 +32 +32 очень
душно
1009.9 991.5
21 17.10 ЮЗ 2 н/о н/о +25.6 +21.5 78 +33 +33 очень
душно
1011.1 992.7
22 17.10 Ю 1 н/о н/о +26.5 +21.0 72 +33 +33 очень
душно
1012.0 993.6
00 18.10 З 1 н/о н/о +29.3 +21.0 61 +37 +37 очень
душно
1013.0 994.6
01 18.10 Ю 2 н/о в посл. час осадки 1/0
[]
+30.7 +20.6 55 +38 +52 опасность
солнечного
удара
1012.8 994.4 +22.8 7
03 18.10 Ю 2 н/о н/о +33.2 +20.0 46 +39 +39 очень
душно
1011.4 993.0
04 18.10 С 2 н/о 8/8 1500 м
[]
+33.6 +18.5 41 +38 +43 очень
душно
1010.1 991.7
06 18.10 С 3 н/о н/о +32.1 +20.7 51 +39 +39 очень
душно
1009.1 990.8
07 18.10 СВ 4 н/о {осадки} 8/0
[]
+32.9 +19.0 44 +38 +42 очень
душно
1008.5 990.2 1
10 18.10 СВ 2 н/о 1/0
[]
+31.0 +19.7 51 +37 +37 очень
душно
1010.1 991.7
12 18.10 СЗ 3 н/о н/о +30.1 +21.5 60 +38 +38 очень
душно
1011.5 993.1
13 18.10 С 3 н/о 9/0
[]
+30.3 +20.0 54 +37 +37 очень
душно
1011.9 993.5 +34.9
15 18.10 С 3 н/о н/о +29.2 +20.4 59 +36 +36 очень
душно
1011.9 993.5
16 18.10 СЗ 3 н/о н/о +28.2 +21.0 65 +35 +35 очень
душно
1011.4 993.0
18 18.10 З 3 н/о н/о +27.3 +21.1 69 +34 +34 очень
душно
1010.4 992.0
19 18.10 З 1 н/о н/о +27.1 +21.2 70 +34 +34 очень
душно
1010.6 992.2
21 18.10 штиль 0 н/о н/о +26.7 +21.2 72 +34 +34 очень
душно
1011.8 993.4
22 18.10 СВ 1 н/о н/о +27.7 +21.3 68 +35 +35 очень
душно
1012.6 994.2
00 19.10 СЗ 2 н/о н/о +31.6 +19.6 49 +37 +37 очень
душно
1013.6 995.2
01 19.10 С 3 н/о н/о +33.1 +18.1 41 +37 +37 очень
душно
1013.3 994.9 +25.8 1
03 19.10 С 3 н/о н/о +36.2 +15.9 30 +38 +38 очень
душно
1011.4 993.0
04 19.10 С 3 н/о 10/0 2000 м
[]
+36.5 +16.6 31 +39 +49 очень
душно
1010.2 991.8
06 19.10 СВ 2 н/о н/о +37.4 +16.4 29 +40 +40 очень
душно
1008.2 989.9
07 19.10 СЗ 3 н/о 5/0
[]
+38.0 +15.7 27 +40 +45 очень
душно
1007.7 989.4
10 19.10 Ю 1 н/о 4/0
[]
+35.7 +16.4 32 +38 +38 очень
душно
1009.4 991.0
12 19.10 Ю 3 н/о н/о +32.8 +18.2 42 +37 +37 очень
душно
1011.0 992.6
13 19.10 В 2 н/о н/о +31.6 +17.9 44 +36 +36 очень
душно
1011.4 993.0 +39.0
15 19.10 СВ 1 н/о н/о +31.5 +18.8 47 +37 +37 очень
душно
1010.9 992.5
16 19.10 З 2 н/о 10/0
[]
+30.5 +19.5 52 +36 +36 очень
душно
1010.4 992.0
18 19.10 З 3 н/о н/о +30.0 +19.7 54 +36 +36 очень
душно
1009.5 991.1
19 19.10 ЮВ 2 н/о 6/0
[]
+28.6 +19.2 57 +34 +34 очень
душно
1009.4 991.0
21 19.10 Ю 2 н/о н/о +28.1 +19.6 60 +34 +34 очень
душно
1010.5 992.1
22 19.10 СЗ 2 н/о 9/0
[]
+29.9 +19.3 53 +36 +36 очень
душно
1011.1 992.7
00 20.10 ЮЗ 2 н/о н/о +33.2 +18.9 43 +38 +38 очень
душно
1012.0 993.6
01 20.10 З 2 н/о 10/0
[]
+35.4 +17.1 34 +38 +46 очень
душно
1012.0 993.6 +27.6
03 20.10 ЮЗ 2 н/о н/о +37.8 +11.7 21 +37 +37 очень
жарко
1010.2 991.8
04 20.10 ЮВ 5 н/о н/о +40.3 +9.6 16 +39 +39 очень
жарко
1008.9 990.6
06 20.10 В 5 н/о н/о +40.5 +9.8 16 +39 +39 очень
жарко
1006.8 988.5
07 20.10 СВ 7 н/о 4/0
[]
+38.9 +14.0 23 +39 +41 очень
жарко
1006.5 988.2
10 20.10 С 6 н/о н/о +35.1 +18.6 38 +40 +40 очень
душно
1008.4 990.1
12 20.10 СЗ 4 н/о н/о +32.7 +20.6 49 +40 +40 очень
душно
1010.0 991.6
13 20.10 С 3 н/о н/о +31.8 +21.0 53 +39 +39 очень
душно
1010.5 992.1 +41.2
15 20.10 СЗ 3 н/о н/о +31.0 +21.2 56 +39 +39 очень
душно
1009.8 991.4
16 20.10 СВ 2 н/о 10/0
[]
+30.5 +21.0 57 +38 +38 очень
душно
1009.6 991.2
18 20.10 штиль 0 н/о н/о +29.5 +21.7 63 +38 +38 очень
душно
1008.5 990.2
19 20.10 СВ 1 н/о 9/0
[]
+29.3 +21.8 64 +38 +38 очень
душно
1008.7 990.4
21 20.10 В 1 н/о н/о +27.7 +21.5 69 +35 +35 очень
душно
1010.2 991.8
22 20.10 Ю 2 н/о 10/0
[]
+28.3 +21.6 67 +36 +37 очень
душно
1011.1 992.7
00 21.10 ЮВ 3 н/о н/о +30.6 +21.9 60 +39 +39 очень
душно
1012.5 994.1
01 21.10 СВ 6 н/о 9/0
[]
+31.9 +21.4 54 +40 +44 очень
душно
1012.8 994.4 +27.5
03 21.10 СВ 5 н/о н/о +35.1 +20.6 43 +42 +42 опасность
перегрева
1010.9 992.5
04 21.10 СВ 4 н/о н/о +35.7 +19.2 38 +41 +41 опасность
перегрева
1009.6 991.2
06 21.10 СВ 5 н/о н/о +38.1 +18.0 31 +42 +42 опасность
перегрева
1007.2 988.9
07 21.10 СВ 5 н/о н/о +37.4 +18.9 34 +42 +42 опасность
перегрева
1006.3 988.0
10 21.10 СВ 6 н/о 1/0
[]
+32.6 +20.5 49 +39 +39 очень
душно
1007.8 989.5
12 21.10 СВ 3 н/о н/о +32.0 +20.6 51 +39 +39 очень
душно
1010.4 992.0
13 21.10 В 2 н/о 10/0
[]
+31.0 +20.9 55 +38 +38 очень
душно
1010.3 991.9 +38.8
15 21.10 С 1 н/о н/о +29.7 +21.1 60 +37 +37 очень
душно
1009.9 991.5
16 21.10 ЮЗ 4 н/о 10/0
[]
+29.9 +21.6 61 +38 +38 очень
душно
1009.7 991.3
18 21.10 В 2 н/о н/о +28.9 +21.1 63 +36 +36 очень
душно
1008.7 990.4
19 21.10 В 2 н/о 10/0
[]
+28.9 +21.1 63 +36 +36 очень
душно
1008.7 990.4
21 21.10 С 3 н/о н/о +28.2 +22.0 69 +36 +36 очень
душно
1010.0 991.6
22 21.10 СЗ 2 н/о 8/0
[]
+28.8 +22.3 68 +38 +38 очень
душно
1011.0 992.6
00 22.10 С 6 н/о н/о +30.3 +21.7 60 +39 +39 очень
душно
1011.2 992.8
01 22.10 С 3 н/о 9/0
[]
+31.6 +20.5 52 +39 +46 очень
душно
1011.5 993.1 +27.9
03 22.10 С 3 н/о н/о +35.5 +19.4 39 +41 +41 опасность
перегрева
1009.9 991.5
04 22.10 С 4 н/о н/о +37.8 +17.2 30 +41 +41 опасность
перегрева
1008.7 990.4
06 22.10 СВ 4 н/о н/о +38.4 +18.3 31 +42 +42 опасность
перегрева
1006.5 988.2
07 22.10 СВ 5 н/о н/о +37.2 +17.7 32 +41 +41 опасность
перегрева
1006.2 987.9
10 22.10 СВ 3 н/о 4/0
[]
+33.5 +20.6 47 +40 +40 очень
душно
1007.9 989.6
12 22.10 В 7 н/о н/о +30.2 +19.3 52 +36 +36 очень
душно
1010.0 991.6
13 22.10 В 5 н/о 9/0
[]
+28.9 +19.2 56 +34 +34 очень
душно
1010.6 992.2 +39.0
15 22.10 С 3 н/о н/о +28.2 +19.4 59 +34 +34 очень
душно
1010.2 991.8
16 22.10 штиль 0 н/о 9/0
[]
+28.1 +19.3 59 +34 +34 очень
душно
1009.6 991.2
18 22.10 З 2 н/о н/о +27.9 +19.7 61 +34 +34 очень
душно
1007.6 989.3
19 22.10 З 3 н/о 8/0
[]
+28.1 +19.9 61 +34 +34 очень
душно
1007.5 989.2

 

Местоположение метеостанции Argyle Aero (Западная Австралия, Австралия): широта -16.63 долгота 128.45 высота над уровнем моря 165 м.

В архиве по умолчанию представлена погода в Argyle Aero за последнюю неделю. Архивные данные за месяц целиком и за предыдущие месяцы, начиная с января 2011 года, Вы можете получить, выбрав интересующий диапазон дат из раскрывающегося списка и нажав кнопку "Ввод!".


*Определитесь, кто Вы:
робот инопланетянин человек

Внимание! Время в таблицах - всемирное. Для получения местного времени необходимо прибавить поправку, которая в Argyle Aero равна 8 ч.

Смотрите также архив погоды в соседних городах и на ближайших метеорологических станциях:

Погода в Kununurra (Западная Австралия, Австралия) (99 км)
Погода в Wyndham Aero (Западная Австралия, Австралия) (130 км)
Погода в Halls Creek Airport (Западная Австралия, Австралия) (197 км)
Погода в Victoria River Downs (Северная территория, Австралия) (275 км)
Погода в Port Keats Aero (Северная территория, Австралия) (289 км)
Погода в Lajamanu (Северная территория, Австралия) (299 км)
Погода в Manbulloo Csiro (Северная территория, Австралия) (313 км)
Погода в Kalumburu (Западная Австралия, Австралия) (323 км)
Погода в Fitzroy Crossing Aero (Западная Австралия, Австралия) (352 км)
Погода в Truscott (Западная Австралия, Австралия) (360 км)

Пояснения к столбцам:

Ветер - указаны скорость ветра в м/с - средняя за 10 мин, порывы в срок и между сроками (в фигурных скобках) и направление, откуда дует ветер: С - северный, СВ - северо-восточный, В - восточный, ЮВ - юго-восточный, Ю - южный, ЮЗ - юго-западный, З - западный, СЗ - северо-западный.
Видимость - горизонтальная дальность видимости в метрах или километрах. При видимости от 1 до 10 км при отсутствии осадков обычно наблюдается дымка, при ухудшении видимости до 1 км и менее - туман. В сухую погоду видимость может ухудшаться дымом, пылью или мглою.
Явления - указаны атмосферные явления, наблюдавшиеся в срок или в последний час перед сроком; фигурными скобками обозначены явления, наблюдавшиеся между сроками (за 1-3 часа до срока); квадратными скобками обозначены град или гололедные отложения с указанием их диаметра в мм.
Облачность - указаны через наклонную черту общая и нижняя облачность в баллах и высота нижней границы облаков в метрах; квадратными скобками обозначены формы облаков: Ci - перистые, Cs - перисто-слоистые, Cc - перисто-кучевые, Ac - высококучевые, As - высокослоистые, Sc - слоисто-кучевые, Ns - слоисто-дождевые, Cu - кучевые, Cb - кучево-дождевые. Подробнее классификацию облаков см. в Атласе облаков (PDF).
T - Температура воздуха - температура, измеренная на высоте 2 м над землей.
Td - Температура точки росы - температура, при понижении до которой содержащийся в воздухе водяной пар достигнет насыщения.
f - Относительная влажность воздуха - влажноcть воздуха, измеренная на высоте 2 м над землей.
Te - Эффективная температура - температура, которую ощущает одетый по сезону человек в тени. Характеристика душности погоды. При расчете учитывается влияние влажности воздуха и скорости ветра на теплоощущения человека.
Tes - Эффективная температура на солнце - температура, которую ощущает человек, с поправкой на солнечный нагрев. Характеристика знойности погоды. Зависит от высоты солнца над горизонтом, облачности и скорости ветра. Ночью, в пасмурную погоду, а также при ветре 12 м/с и более поправка равна нулю.
P - Атмосферное давление - приведенное к уровню моря атмосферное давление.
Po - Атмосферное давление - измеренное на уровне метеостанции атмосферное давление.
Tmin - Минимальная температура - минимум температуры воздуха на высоте 2 м над землей.
Tmax - Максимальная температура - максимум температуры воздуха на высоте 2 м над землей.
R - Количество осадков - Количество выпавших осадков за период времени, мм. При наведении курсора мыши на число - период времени, за который выпало указанное количество осадков.
R24 - Количество осадков - Количество выпавших осадков за 24 часа, мм.
S - Снежный покров - Высота снежного покрова, см. При наведении курсора мыши на число - состояние снежного покрова и степень покрытия местности в баллах.